Location: Ariel
(45.9570°N, 122.5700°W)
Time: 18:24:46
(UTC-07:00)

Tiros 1 - Pass Details

Date: 21 July 2019
Orbit: 631 x 664 km, 48.4° (Epoch: 23 August)

Event Time Altitude Azimuth Distance (km) Brightness Sun altitude
Rises 12:01:40 0° 197° (SSW) 2,971 10.8 60.2°
Reaches altitude 10° 12:04:38 10° 179° (S) 2,068 10.3 60.5°
Maximum altitude 12:07:50 18° 136° (SE) 1,606 10.0 60.8°
Drops below altitude 10° 12:11:04 10° 94° (E) 2,081 10.2 61.1°
Sets 12:14:03 0° 76° (ENE) 2,998 10.7 61.4°
